Wind_Speed
22 22 22 23 24 23 23 23 23 22 24 25 27 28 28 27 26 27 28 26 25 24 24 24 24 24 25 25 25 24 23 23 22 22 22 22 22 22 23 24 24 25 24 24
24 22 22 24 23 23 23 24 24 24 26 27 27 26 28 28 27 28 28 27 25 25 25 25 25 25 25 25 25 25 25 24 24 23 23 23 24 24 24 25 25 26 25 26
25 22 23 24 23 24 24 24 25 26 28 27 27 28 30 30 28 29 30 27 26 25 26 26 26 26 26 25 25 26 26 26 25 25 25 25 25 25 25 25 26 26 27 27
25 24 25 24 24 25 25 25 25 26 28 29 29 30 31 30 28 29 28 28 28 27 27 27 27 26 27 26 26 26 26 27 27 27 26 27 27 27 27 27 27 28 28 28
27 26 26 26 26 24 25 26 26 27 28 29 29 30 30 29 29 29 30 29 28 28 28 28 27 27 27 26 27 27 27 27 28 28 28 28 28 28 28 28 28 28 29 29
28 27 27 27 26 24 25 27 27 27 29 29 29 30 30 30 31 30 29 29 28 28 29 29 28 28 28 28 28 29 29 28 29 29 29 29 28 28 28 29 29 29 29 29
28 29 29 27 25 25 26 28 27 27 28 29 29 29 30 30 30 29 29 29 29 29 29 29 29 29 29 30 30 30 29 29 30 29 29 29 29 29 28 29 29 29 29 29
28 29 30 28 26 27 28 28 27 28 28 29 30 30 30 30 30 30 30 29 30 30 30 29 30 29 30 30 30 30 30 30 30 30 30 30 30 30 29 29 29 29 29 29
29 28 28 27 28 29 29 28 27 28 29 30 30 31 31 30 30 30 30 29 29 29 29 30 31 31 30 30 30 29 29 30 29 30 31 31 30 30 29 29 29 30 31 31
28 28 29 29 29 29 30 29 30 29 30 31 31 29 30 30 30 30 29 29 29 29 30 31 31 31 31 31 30 30 28 29 30 31 31 31 31 30 30 30 30 30 31 31
29 29 30 30 30 30 30 30 30 29 30 30 30 30 31 31 30 30 30 30 30 30 30 31 31 31 32 32 31 30 30 30 30 30 30 30 31 31 31 31 32 32 33 33
31 30 31 31 30 31 31 31 30 31 30 29 29 29 29 30 29 29 28 29 30 31 31 32 32 32 32 31 31 30 30 30 30 30 30 31 31 31 31 32 33 34 33 33
32 31 31 31 31 31 31 30 30 30 30 30 29 29 29 28 29 29 29 30 30 31 32 31 32 32 31 30 29 30 30 30 30 31 31 31 31 31 32 32 33 33 32 31
32 32 32 31 31 31 31 31 30 29 29 29 29 28 28 28 29 30 30 30 29 30 30 30 30 30 30 30 29 30 30 31 31 30 30 30 31 31 32 32 32 32 31 30
31 32 32 31 31 30 30 30 29 28 28 28 27 27 28 28 28 29 29 29 28 29 29 30 29 29 29 29 29 29 30 30 30 30 30 31 31 30 31 31 31 31 30 29
30 30 31 31 30 30 30 30 29 28 28 28 27 28 28 28 28 28 28 29 28 28 28 28 28 28 29 29 29 29 30 30 29 29 29 29 29 29 29 29 29 29 29 29
27 27 28 29 30 30 30 30 30 29 29 29 29 29 29 29 29 28 28 28 28 27 27 27 27 27 27 28 28 29 29 28 28 28 28 28 28 28 28 28 28 29 29 29
26 26 26 27 27 28 30 30 30 30 30 30 30 30 30 30 30 29 29 28 28 27 27 27 27 27 28 28 28 29 28 28 28 27 27 27 28 28 28 28 28 28 28 28
25 25 25 25 25 26 27 28 29 29 30 30 30 29 29 29 30 29 29 29 29 28 28 28 28 28 28 27 27 27 27 27 27 27 27 28 27 27 27 27 27 26 26 26
24 24 24 24 24 24 24 25 26 27 28 28 28 28 29 29 29 29 29 28 29 29 28 27 27 27 27 27 27 26 27 27 28 28 27 27 26 26 26 27 27 26 26 26
25 24 23 23 23 24 24 24 24 25 26 26 27 27 27 27 27 28 28 28 28 28 28 27 27 27 27 27 27 27 27 27 27 27 27 26 26 26 26 26 25 25 25 25
24 24 24 23 23 24 23 23 23 23 24 24 25 25 25 25 26 26 26 27 27 27 27 27 26 27 27 27 27 27 26 26 26 26 25 25 26 26 26 26 25 24 24 24
22 21 22 22 22 23 23 23 23 23 23 23 23 24 24 24 24 25 25 25 26 25 25 25 26 26 26 26 26 25 25 25 25 25 25 25 25 25 25 25 24 24 24 23
20 20 20 20 21 21 21 22 22 22 22 22 21 21 22 23 24 24 24 24 24 24 24 24 24 24 24 24 24 25 24 24 24 24 24 24 24 24 25 24 25 24 23 23
18 18 18 18 18 19 20 21 21 21 21 21 22 22 22 22 22 22 22 22 21 21 22 22 22 22 22 22 22 22 23 23 22 22 22 22 22 23 24 23 23 22 22 22
17 16 16 17 17 18 19 20 20 20 20 20 20 20 20 20 20 20 20 20 20 21 20 20 20 20 20 20 20 20 20 20 20 20 21 21 22 22 22 22 22 22 22 22
16 16 16 16 17 18 18 19 19 19 19 19 19 19 18 19 19 19 19 19 19 20 19 19 19 19 19 19 20 20 20 19 19 19 20 21 21 21 21 21 22 22 22 22
Wind_Direction
251 254 258 261 264 264 263 260 259 260 264 264 268 274 275 278 280 282 283 284 285 286 286 285 285 283 284 286 286 286 288 291 293 289 286 285 283 282 280 280 280 281 281 281
252 253 258 262 262 264 262 259 257 257 259 265 269 274 279 281 280 281 281 282 283 284 286 284 283 283 283 285 286 285 286 288 289 289 288 286 284 283 282 281 282 282 282 283
255 253 257 259 259 262 265 264 261 260 261 263 265 270 274 277 281 281 281 280 284 285 285 284 282 281 280 281 283 284 285 287 286 286 286 286 286 283 281 281 281 282 284 285
257 255 255 256 259 261 263 263 260 260 261 263 267 269 272 275 278 278 279 281 283 282 282 282 282 281 280 280 281 282 283 284 286 286 284 285 284 284 281 279 280 281 283 283
256 256 257 255 258 260 262 261 260 260 263 265 267 268 269 274 277 275 279 280 281 280 281 281 280 280 280 279 279 280 281 282 285 286 286 284 283 282 282 281 280 281 282 283
254 253 254 257 262 261 259 261 262 264 267 270 270 270 270 272 275 275 277 278 279 280 281 281 279 279 279 278 278 279 280 281 283 284 284 283 282 280 281 282 281 282 282 282
253 255 257 258 261 263 259 261 263 266 268 270 270 268 269 273 274 277 278 278 279 280 281 281 279 278 278 278 278 279 279 280 281 282 282 283 284 282 281 282 282 282 281 282
253 254 257 260 258 256 261 264 265 266 268 267 267 269 270 271 274 277 276 276 279 279 279 279 279 280 280 279 280 279 278 278 279 281 281 281 282 282 281 282 283 283 283 282
251 253 256 256 255 258 260 265 265 265 266 265 266 268 271 274 275 277 276 275 277 278 278 278 280 282 283 283 282 280 278 278 279 280 281 282 282 281 282 282 283 284 285 285
249 251 252 254 255 257 259 264 267 267 269 269 270 270 271 274 275 275 275 278 279 279 280 281 281 282 283 284 284 282 281 280 279 280 280 281 280 281 281 282 284 285 286 287
249 249 253 255 257 259 263 265 267 268 268 269 271 272 273 274 275 275 275 274 276 278 279 282 282 283 284 284 283 282 281 280 280 280 281 281 281 281 281 282 284 284 285 286
250 251 253 255 258 261 264 267 269 270 270 270 271 272 273 274 275 275 275 277 275 277 279 281 282 284 284 285 284 283 281 280 280 281 282 281 281 281 282 282 283 284 285 285
252 254 255 257 260 264 266 269 270 272 272 271 270 271 273 275 275 277 279 277 278 279 280 281 281 282 284 286 285 285 285 283 282 282 283 282 281 281 282 283 284 285 285 285
252 255 257 259 261 264 266 269 270 272 273 272 271 271 273 275 276 276 278 278 280 281 280 281 283 285 285 286 286 286 285 284 283 283 284 283 283 283 283 284 285 285 284 284
253 255 257 259 261 263 264 267 269 271 271 271 270 272 274 276 277 277 277 277 278 280 282 283 284 286 286 286 286 287 286 285 284 284 285 285 284 283 284 285 286 285 284 284
255 257 258 259 261 261 263 266 268 269 269 269 271 273 274 276 277 278 279 281 282 281 282 283 284 285 284 284 285 286 286 286 286 285 285 286 286 285 285 285 286 285 284 285
258 258 258 259 261 262 263 265 267 268 269 270 271 272 273 274 276 278 280 282 282 282 282 282 283 284 284 284 284 285 285 285 285 285 284 285 286 286 285 284 285 286 286 285
259 260 261 261 261 262 264 265 266 267 268 270 271 272 273 274 276 278 280 282 282 282 283 283 284 284 285 285 285 284 284 285 285 286 286 286 287 287 286 285 286 287 287 286
258 260 261 262 264 265 265 265 266 266 268 269 271 272 273 274 275 277 279 280 280 281 282 283 283 284 285 286 285 285 285 285 286 286 286 286 287 288 288 287 286 286 286 286
259 261 263 263 263 265 266 266 266 267 269 271 273 274 275 275 276 277 278 279 280 282 282 281 282 284 285 285 286 286 285 285 286 287 286 286 286 288 289 289 287 287 287 287
258 261 264 263 263 266 268 269 270 271 272 273 275 275 276 277 278 278 277 278 280 282 283 282 282 283 284 285 285 285 284 284 284 286 286 286 286 287 288 288 288 287 286 286
260 263 264 264 264 266 268 270 272 274 276 276 276 276 277 279 280 279 278 278 280 282 282 282 282 283 284 284 284 284 284 283 283 284 284 283 284 285 286 288 288 289 289 288
260 264 265 265 266 266 268 270 272 274 276 277 276 277 278 279 281 281 280 281 282 284 285 284 284 284 285 284 283 283 283 282 283 283 283 283 283 283 285 287 287 288 289 289
259 263 265 265 265 265 266 268 269 272 275 278 279 279 280 281 282 282 283 284 285 286 287 288 288 288 287 286 284 282 282 282 281 280 282 284 284 284 285 285 287 288 288 289
262 263 264 264 264 263 264 266 267 270 273 278 281 283 282 282 282 283 284 287 288 290 290 290 290 290 289 288 287 286 284 282 282 283 285 286 286 285 286 287 288 289 290 290
265 265 264 264 265 268 271 271 271 273 278 282 284 284 283 283 284 286 287 289 291 292 292 292 293 292 291 288 286 286 286 287 288 287 286 287 289 289 289 290 289 290 290 290
266 267 268 267 268 271 274 276 278 279 280 282 283 284 283 284 285 286 288 289 290 291 290 290 292 294 292 289 288 288 287 286 288 289 290 290 291 291 291 293 294 293 293 292
Height
5879 5881 5883 5883 5884 5884 5884 5884 5884 5885 5883 5880 5878 5876 5874 5872 5872 5872 5870 5869 5869 5868 5867 5866 5866 5865 5864 5863 5862 5861 5861 5860 5859 5858 5857 5856 5856 5855 5855 5855 5854 5854 5853 5853
5872 5874 5875 5875 5876 5877 5877 5876 5876 5876 5875 5873 5871 5869 5867 5865 5864 5864 5864 5863 5863 5862 5861 5860 5859 5859 5858 5857 5856 5855 5854 5854 5853 5852 5851 5850 5850 5849 5849 5848 5848 5847 5846 5846
5864 5866 5867 5868 5869 5870 5870 5869 5869 5869 5868 5866 5865 5863 5862 5860 5859 5857 5856 5856 5856 5855 5854 5854 5853 5852 5851 5850 5849 5849 5848 5847 5847 5846 5845 5844 5843 5842 5842 5841 5841 5840 5839 5839
5857 5859 5858 5863 5861 5862 5862 5861 5861 5860 5859 5858 5858 5857 5855 5853 5851 5849 5849 5849 5849 5849 5847 5846 5846 5845 5844 5843 5843 5842 5842 5841 5840 5839 5838 5837 5836 5835 5834 5833 5833 5833 5832 5831
5849 5850 5851 5853 5852 5853 5854 5852 5852 5851 5851 5850 5849 5848 5847 5845 5843 5842 5842 5842 5842 5841 5840 5839 5838 5838 5837 5836 5836 5835 5834 5834 5833 5831 5830 5829 5828 5827 5826 5825 5825 5825 5824 5823
5841 5842 5843 5846 5845 5845 5846 5844 5843 5842 5842 5841 5841 5840 5839 5837 5836 5834 5835 5835 5834 5833 5832 5832 5831 5830 5829 5828 5828 5827 5826 5826 5825 5824 5822 5821 5820 5819 5818 5818 5817 5816 5816 5815
5832 5833 5835 5836 5837 5838 5838 5836 5835 5834 5834 5833 5833 5832 5831 5830 5829 5827 5827 5827 5826 5825 5825 5824 5823 5822 5821 5820 5819 5818 5818 5817 5817 5815 5814 5813 5812 5811 5810 5810 5809 5808 5807 5807
5825 5826 5828 5829 5829 5829 5828 5827 5827 5827 5826 5826 5825 5824 5822 5822 5821 5821 5819 5818 5819 5818 5817 5816 5815 5813 5813 5811 5810 5809 5809 5809 5808 5807 5806 5806 5805 5803 5802 5801 5801 5800 5799 5798
5817 5819 5818 5818 5819 5819 5819 5819 5819 5819 5818 5818 5817 5816 5815 5815 5814 5812 5810 5811 5810 5810 5809 5808 5807 5807 5806 5804 5802 5801 5801 5800 5800 5799 5798 5797 5797 5796 5795 5793 5793 5792 5791 5790
5808 5808 5809 5810 5810 5811 5811 5811 5811 5810 5811 5810 5810 5808 5807 5808 5807 5806 5804 5804 5802 5802 5802 5801 5800 5799 5798 5797 5795 5794 5793 5792 5791 5790 5790 5789 5788 5788 5787 5786 5785 5784 5782 5781
5799 5800 5801 5801 5802 5803 5803 5803 5803 5802 5803 5803 5803 5802 5801 5800 5800 5799 5798 5797 5795 5795 5794 5793 5792 5790 5789 5788 5787 5785 5784 5783 5783 5782 5781 5781 5780 5779 5778 5778 5776 5775 5774 5773
5790 5792 5793 5794 5794 5795 5795 5795 5795 5795 5795 5795 5794 5794 5793 5792 5792 5791 5790 5789 5788 5787 5786 5785 5784 5783 5781 5780 5778 5777 5776 5775 5774 5773 5772 5772 5771 5771 5769 5769 5768 5766 5765 5764
5783 5783 5784 5786 5787 5787 5787 5787 5788 5787 5787 5787 5787 5786 5786 5785 5784 5783 5782 5781 5780 5779 5778 5777 5776 5775 5773 5772 5771 5769 5768 5767 5766 5764 5763 5763 5762 5761 5760 5760 5759 5757 5756 5755
5774 5775 5777 5778 5779 5779 5779 5779 5780 5780 5779 5779 5779 5779 5778 5778 5777 5776 5774 5773 5772 5771 5770 5769 5768 5767 5766 5765 5763 5762 5760 5759 5757 5756 5755 5754 5753 5752 5751 5750 5750 5749 5748 5747
5765 5767 5768 5770 5770 5771 5771 5771 5771 5772 5771 5771 5771 5771 5770 5770 5769 5768 5766 5765 5764 5763 5763 5762 5761 5760 5758 5757 5756 5754 5752 5751 5749 5748 5747 5746 5744 5743 5742 5741 5740 5739 5739 5738
5757 5758 5759 5760 5761 5762 5763 5763 5763 5764 5764 5763 5763 5763 5762 5762 5761 5760 5759 5758 5757 5756 5755 5754 5753 5752 5751 5749 5748 5746 5744 5743 5741 5740 5739 5737 5736 5735 5734 5733 5732 5731 5730 5729
5749 5750 5751 5752 5753 5753 5754 5754 5755 5755 5756 5756 5756 5755 5755 5755 5754 5753 5752 5750 5750 5749 5748 5747 5746 5745 5743 5742 5740 5738 5736 5735 5733 5732 5731 5730 5728 5727 5726 5725 5723 5722 5721 5720
5742 5743 5744 5744 5745 5745 5746 5746 5747 5747 5747 5747 5747 5747 5747 5747 5746 5745 5744 5743 5742 5741 5740 5739 5738 5737 5736 5734 5732 5730 5729 5727 5726 5724 5723 5722 5720 5719 5717 5716 5715 5714 5713 5712
5735 5736 5736 5737 5737 5737 5737 5737 5738 5738 5739 5739 5739 5739 5738 5738 5738 5737 5736 5735 5734 5734 5733 5732 5731 5729 5728 5726 5724 5723 5721 5720 5718 5717 5716 5714 5713 5711 5709 5708 5707 5706 5705 5704
5728 5729 5729 5729 5729 5729 5730 5730 5730 5730 5730 5730 5730 5730 5730 5730 5729 5729 5728 5727 5726 5725 5724 5723 5722 5721 5720 5718 5717 5715 5714 5713 5711 5710 5708 5707 5705 5704 5702 5701 5700 5698 5697 5696
5721 5722 5722 5722 5722 5722 5723 5723 5723 5723 5723 5723 5722 5722 5722 5722 5721 5721 5720 5719 5718 5717 5716 5715 5714 5713 5712 5710 5709 5707 5706 5705 5704 5702 5701 5699 5698 5697 5695 5693 5692 5691 5690 5688
5714 5715 5715 5715 5715 5716 5716 5716 5716 5716 5715 5715 5715 5715 5714 5714 5713 5712 5712 5711 5710 5709 5708 5707 5706 5704 5703 5702 5701 5699 5698 5697 5696 5695 5693 5692 5691 5689 5688 5687 5685 5684 5682 5681
5708 5708 5708 5708 5709 5709 5709 5710 5710 5709 5709 5708 5708 5708 5707 5706 5705 5705 5704 5703 5702 5701 5700 5699 5698 5696 5695 5693 5692 5691 5690 5689 5688 5687 5686 5685 5683 5682 5681 5680 5678 5677 5675 5674
5702 5702 5702 5702 5702 5703 5703 5703 5703 5703 5703 5702 5702 5701 5700 5699 5698 5697 5696 5696 5695 5693 5692 5691 5690 5688 5687 5686 5684 5683 5682 5681 5680 5679 5678 5677 5676 5675 5674 5672 5671 5669 5668 5667
5696 5696 5696 5696 5697 5697 5697 5697 5697 5697 5696 5696 5695 5695 5694 5693 5692 5691 5690 5689 5688 5687 5685 5684 5683 5681 5680 5679 5677 5676 5675 5674 5673 5672 5671 5670 5669 5668 5667 5665 5664 5662 5661 5660
5690 5690 5691 5691 5692 5691 5691 5691 5691 5691 5690 5690 5689 5688 5687 5687 5686 5685 5684 5683 5681 5680 5679 5678 5676 5675 5674 5672 5671 5670 5669 5668 5668 5666 5665 5664 5663 5662 5661 5659 5658 5656 5654 5653
5686 5686 5686 5687 5687 5687 5686 5686 5685 5685 5684 5684 5683 5683 5682 5681 5680 5679 5678 5677 5675 5674 5673 5672 5671 5669 5668 5667 5666 5665 5663 5662 5661 5660 5659 5658 5657 5656 5654 5653 5651 5649 5648 5646